Time,TemperatureF,DewpointF,PressureIn,WindDirection,WindDirectionDegrees,WindSpeedMPH,WindSpeedGustMPH,Humidity,HourlyPrecipIn,Conditions,Clouds,dailyrainin,SoftwareType,DateUTC
2013-02-04 00:03:00,15.0,-99.9,30.66,West,281,18.0,23.0,-999,-99.99,,,-99.99,,2013-02-04 05:03:00,
2013-02-04 00:12:00,15.0,-99.9,29.96,West,281,18.0,23.0,-999,-99.99,,,-99.99,,2013-02-04 05:12:00,
2013-02-04 00:22:00,15.0,-99.9,30.66,WNW,299,14.0,23.0,-999,-99.99,,,-99.99,,2013-02-04 05:22:00,
2013-02-04 00:33:00,15.0,-99.9,29.96,WNW,299,14.0,23.0,-999,-99.99,,,-99.99,,2013-02-04 05:33:00,
2013-02-04 00:42:00,15.0,-99.9,30.66,WNW,299,14.0,23.0,-999,-99.99,,,-99.99,,2013-02-04 05:42:00,
2013-02-04 00:52:00,15.0,-99.9,29.96,WNW,299,14.0,23.0,-999,-99.99,,,-99.99,,2013-02-04 05:52:00,
2013-02-04 01:02:00,16.0,-99.9,29.96,NW,306,18.0,23.0,-999,-99.99,,,-99.99,,2013-02-04 06:02:00,
2013-02-04 01:11:00,16.0,-99.9,29.97,NW,306,18.0,23.0,-999,-99.99,,,-99.99,,2013-02-04 06:11:00,
2013-02-04 01:22:00,15.0,-99.9,29.96,WNW,299,14.0,23.0,-999,-99.99,,,-99.99,,2013-02-04 06:22:00,
2013-02-04 01:32:00,15.0,-99.9,29.96,WNW,299,14.0,23.0,-999,-99.99,,,-99.99,,2013-02-04 06:32:00,
2013-02-04 01:42:00,16.0,-99.9,30.67,NW,306,15.0,26.0,-999,-99.99,,,-99.99,,2013-02-04 06:42:00,
2013-02-04 01:52:00,16.0,-99.9,29.97,NW,306,15.0,26.0,-999,-99.99,,,-99.99,,2013-02-04 06:52:00,
2013-02-04 02:02:00,16.0,-99.9,30.67,WNW,302,15.0,21.0,-999,-99.99,,,-99.99,,2013-02-04 07:02:00,
2013-02-04 02:11:00,16.0,-99.9,29.97,WNW,302,15.0,21.0,-999,-99.99,,,-99.99,,2013-02-04 07:11:00,
2013-02-04 02:22:00,16.0,-99.9,30.67,WNW,296,18.0,24.0,-999,-99.99,,,-99.99,,2013-02-04 07:22:00,
2013-02-04 02:32:00,16.0,-99.9,29.97,WNW,296,18.0,24.0,-999,-99.99,,,-99.99,,2013-02-04 07:32:00,
2013-02-04 02:42:00,16.0,-99.9,30.67,WNW,296,18.0,24.0,-999,-99.99,,,-99.99,,2013-02-04 07:42:00,
2013-02-04 02:52:00,16.0,-99.9,29.97,WNW,296,18.0,24.0,-999,-99.99,,,-99.99,,2013-02-04 07:52:00,
2013-02-04 03:01:00,16.0,-99.9,30.67,NW,309,12.0,22.0,-999,-99.99,,,-99.99,,2013-02-04 08:01:00,
2013-02-04 03:11:00,16.0,-99.9,29.97,NW,309,12.0,22.0,-999,-99.99,,,-99.99,,2013-02-04 08:11:00,
2013-02-04 03:21:00,16.0,-99.9,29.97,WNW,296,18.0,24.0,-999,-99.99,,,-99.99,,2013-02-04 08:21:00,
2013-02-04 03:32:00,16.0,-99.9,30.67,WNW,300,16.0,24.0,-999,-99.99,,,-99.99,,2013-02-04 08:32:00,
2013-02-04 03:42:00,16.0,-99.9,29.97,WNW,300,16.0,24.0,-999,-99.99,,,-99.99,,2013-02-04 08:42:00,
2013-02-04 03:52:00,16.0,-99.9,30.67,WNW,300,16.0,24.0,-999,-99.99,,,-99.99,,2013-02-04 08:52:00,
2013-02-04 04:02:00,16.0,-99.9,30.66,WNW,298,18.0,21.0,-999,-99.99,,,-99.99,,2013-02-04 09:02:00,
2013-02-04 04:11:00,16.0,-99.9,29.96,WNW,298,18.0,21.0,-999,-99.99,,,-99.99,,2013-02-04 09:11:00,
2013-02-04 04:22:00,16.0,-99.9,29.96,WNW,298,18.0,21.0,-999,-99.99,,,-99.99,,2013-02-04 09:22:00,
2013-02-04 04:32:00,16.0,-99.9,30.66,WNW,292,16.0,25.0,-999,-99.99,,,-99.99,,2013-02-04 09:32:00,
2013-02-04 04:42:00,16.0,-99.9,29.96,WNW,292,16.0,25.0,-999,-99.99,,,-99.99,,2013-02-04 09:42:00,
2013-02-04 04:52:00,16.0,-99.9,29.96,WNW,292,16.0,25.0,-999,-99.99,,,-99.99,,2013-02-04 09:52:00,
2013-02-04 05:02:00,16.0,-99.9,29.96,NW,317,16.0,21.0,-999,-99.99,,,-99.99,,2013-02-04 10:02:00,
2013-02-04 05:12:00,16.0,-99.9,29.96,NW,317,16.0,21.0,-999,-99.99,,,-99.99,,2013-02-04 10:12:00,
2013-02-04 05:22:00,16.0,-99.9,30.66,WNW,292,16.0,25.0,-999,-99.99,,,-99.99,,2013-02-04 10:22:00,
2013-02-04 05:32:00,16.0,-99.9,29.96,WNW,292,16.0,25.0,-999,-99.99,,,-99.99,,2013-02-04 10:32:00,
2013-02-04 05:42:00,16.0,-99.9,30.65,WNW,292,12.0,23.0,-999,-99.99,,,-99.99,,2013-02-04 10:42:00,
2013-02-04 05:52:00,16.0,-99.9,29.95,WNW,292,12.0,23.0,-999,-99.99,,,-99.99,,2013-02-04 10:52:00,
2013-02-04 06:02:00,16.0,-99.9,30.65,WNW,302,14.0,19.0,-999,-99.99,,,-99.99,,2013-02-04 11:02:00,
2013-02-04 06:11:00,16.0,-99.9,29.95,WNW,302,14.0,19.0,-999,-99.99,,,-99.99,,2013-02-04 11:11:00,
2013-02-04 06:22:00,16.0,-99.9,30.65,WNW,292,12.0,23.0,-999,-99.99,,,-99.99,,2013-02-04 11:22:00,
2013-02-04 06:33:00,16.0,-99.9,29.95,WNW,292,12.0,23.0,-999,-99.99,,,-99.99,,2013-02-04 11:33:00,
2013-02-04 06:42:00,16.0,-99.9,30.65,NW,313,13.0,19.0,-999,-99.99,,,-99.99,,2013-02-04 11:42:00,
2013-02-04 06:52:00,16.0,-99.9,29.95,NW,313,13.0,19.0,-999,-99.99,,,-99.99,,2013-02-04 11:52:00,
2013-02-04 07:03:00,16.0,-99.9,30.66,NW,312,11.0,18.0,-999,-99.99,,,-99.99,,2013-02-04 12:03:00,
2013-02-04 07:12:00,16.0,-99.9,29.96,NW,312,11.0,18.0,-999,-99.99,,,-99.99,,2013-02-04 12:12:00,
2013-02-04 07:22:00,16.0,-99.9,29.96,NW,312,11.0,18.0,-999,-99.99,,,-99.99,,2013-02-04 12:22:00,
2013-02-04 07:33:00,16.0,-99.9,30.65,NW,313,13.0,19.0,-999,-99.99,,,-99.99,,2013-02-04 12:33:00,
2013-02-04 07:42:00,16.0,-99.9,30.66,North,360,9.0,19.0,-999,-99.99,,,-99.99,,2013-02-04 12:42:00,
2013-02-04 07:53:00,16.0,-99.9,29.96,North,360,9.0,19.0,-999,-99.99,,,-99.99,,2013-02-04 12:53:00,
2013-02-04 08:03:00,16.0,-99.9,30.66,NW,324,12.0,14.0,-999,-99.99,,,-99.99,,2013-02-04 13:03:00,
2013-02-04 08:12:00,16.0,-99.9,29.96,NW,324,12.0,14.0,-999,-99.99,,,-99.99,,2013-02-04 13:12:00,
2013-02-04 08:22:00,16.0,-99.9,30.66,North,360,9.0,19.0,-999,-99.99,,,-99.99,,2013-02-04 13:22:00,
2013-02-04 08:33:00,16.0,-99.9,30.66,North,360,9.0,19.0,-999,-99.99,,,-99.99,,2013-02-04 13:33:00,
2013-02-04 08:42:00,16.0,-99.9,-100.00,North,360,9.0,19.0,-999,-99.99,,,-99.99,,2013-02-04 13:42:00,
2013-02-04 08:52:00,16.0,-99.9,29.96,North,360,9.0,19.0,-999,-99.99,,,-99.99,,2013-02-04 13:52:00,
2013-02-04 09:03:00,16.0,-99.9,30.67,NW,324,8.0,13.0,-999,-99.99,,,-99.99,,2013-02-04 14:03:00,
2013-02-04 09:12:00,16.0,-99.9,29.97,NW,324,8.0,13.0,-999,-99.99,,,-99.99,,2013-02-04 14:12:00,
2013-02-04 09:23:00,16.0,-99.9,29.97,NW,324,8.0,13.0,-999,-99.99,,,-99.99,,2013-02-04 14:23:00,
2013-02-04 09:33:00,16.0,-99.9,29.97,NW,324,8.0,13.0,-999,-99.99,,,-99.99,,2013-02-04 14:33:00,
2013-02-04 09:42:00,16.0,-99.9,29.97,NNW,333,9.0,17.0,-999,-99.99,,,-99.99,,2013-02-04 14:42:00,
2013-02-04 09:53:00,16.0,-99.9,30.67,NNW,333,9.0,17.0,-999,-99.99,,,-99.99,,2013-02-04 14:53:00,
2013-02-04 10:04:00,16.0,-99.9,30.68,North,349,8.0,13.0,-999,-99.99,,,-99.99,,2013-02-04 15:04:00,
2013-02-04 10:13:00,16.0,-99.9,29.98,North,349,8.0,13.0,-999,-99.99,,,-99.99,,2013-02-04 15:13:00,
2013-02-04 10:24:00,16.0,-99.9,29.97,NNW,333,9.0,17.0,-999,-99.99,,,-99.99,,2013-02-04 15:24:00,
2013-02-04 10:33:00,16.0,-99.9,30.68,NW,324,6.0,16.0,-999,-99.99,,,-99.99,,2013-02-04 15:33:00,
2013-02-04 10:43:00,16.0,-99.9,29.98,NW,324,6.0,16.0,-999,-99.99,,,-99.99,,2013-02-04 15:43:00,
2013-02-04 10:53:00,16.0,-99.9,30.68,NW,324,6.0,16.0,-999,-99.99,,,-99.99,,2013-02-04 15:53:00,
2013-02-04 11:03:00,16.0,-99.9,30.67,WNW,300,7.0,12.0,-999,-99.99,,,-99.99,,2013-02-04 16:03:00,
2013-02-04 11:11:00,16.0,-99.9,29.97,WNW,300,7.0,12.0,-999,-99.99,,,-99.99,,2013-02-04 16:11:00,
2013-02-04 11:23:00,16.0,-99.9,29.97,WNW,300,7.0,12.0,-999,-99.99,,,-99.99,,2013-02-04 16:23:00,
2013-02-04 11:33:00,17.0,-99.9,30.67,West,280,8.0,14.0,-999,-99.99,,,-99.99,,2013-02-04 16:33:00,
2013-02-04 11:43:00,17.0,-99.9,-100.00,West,280,8.0,14.0,-999,-99.99,,,-99.99,,2013-02-04 16:43:00,
2013-02-04 11:52:00,17.0,-99.9,30.67,West,280,8.0,14.0,-999,-99.99,,,-99.99,,2013-02-04 16:52:00,
2013-02-04 12:03:00,18.0,-99.9,30.67,WNW,291,9.0,11.0,-999,-99.99,,,-99.99,,2013-02-04 17:03:00,
2013-02-04 12:12:00,18.0,-99.9,-100.00,WNW,291,9.0,11.0,-999,-99.99,,,-99.99,,2013-02-04 17:12:00,
2013-02-04 12:21:00,18.0,-99.9,-100.00,WNW,291,9.0,11.0,-999,-99.99,,,-99.99,,2013-02-04 17:21:00,
2013-02-04 12:32:00,18.0,-99.9,30.67,WNW,293,8.0,14.0,-999,-99.99,,,-99.99,,2013-02-04 17:32:00,
2013-02-04 12:42:00,18.0,-99.9,30.67,WNW,293,8.0,14.0,-999,-99.99,,,-99.99,,2013-02-04 17:42:00,
2013-02-04 12:52:00,18.0,-99.9,29.97,WNW,293,8.0,14.0,-999,-99.99,,,-99.99,,2013-02-04 17:52:00,
2013-02-04 13:03:00,17.0,-99.9,30.66,West,278,7.0,11.0,-999,-99.99,,,-99.99,,2013-02-04 18:03:00,
2013-02-04 13:12:00,17.0,-99.9,29.96,West,278,7.0,11.0,-999,-99.99,,,-99.99,,2013-02-04 18:12:00,
2013-02-04 13:22:00,17.0,-99.9,30.66,West,280,7.0,13.0,-999,-99.99,,,-99.99,,2013-02-04 18:22:00,
2013-02-04 13:33:00,17.0,-99.9,29.96,West,280,7.0,13.0,-999,-99.99,,,-99.99,,2013-02-04 18:33:00,
2013-02-04 13:42:00,17.0,-99.9,30.66,West,280,7.0,13.0,-999,-99.99,,,-99.99,,2013-02-04 18:42:00,
2013-02-04 13:52:00,17.0,-99.9,29.96,West,280,7.0,13.0,-999,-99.99,,,-99.99,,2013-02-04 18:52:00,
2013-02-04 14:02:00,17.0,-99.9,30.65,West,277,8.0,12.0,-999,-99.99,,,-99.99,,2013-02-04 19:02:00,
2013-02-04 14:12:00,17.0,-99.9,29.95,West,277,8.0,12.0,-999,-99.99,,,-99.99,,2013-02-04 19:12:00,
2013-02-04 14:23:00,17.0,-99.9,29.95,West,277,8.0,12.0,-999,-99.99,,,-99.99,,2013-02-04 19:23:00,
2013-02-04 14:32:00,18.0,-99.9,30.65,WNW,290,8.0,13.0,-999,-99.99,,,-99.99,,2013-02-04 19:32:00,
2013-02-04 14:42:00,18.0,-99.9,29.95,WNW,290,8.0,13.0,-999,-99.99,,,-99.99,,2013-02-04 19:42:00,
2013-02-04 14:52:00,18.0,-99.9,30.65,WNW,290,8.0,13.0,-999,-99.99,,,-99.99,,2013-02-04 19:52:00,
2013-02-04 15:02:00,17.0,-99.9,30.64,WNW,286,10.0,15.0,-999,-99.99,,,-99.99,,2013-02-04 20:02:00,
2013-02-04 15:12:00,17.0,-99.9,29.94,WNW,286,10.0,15.0,-999,-99.99,,,-99.99,,2013-02-04 20:12:00,
2013-02-04 15:22:00,18.0,-99.9,30.64,NW,306,9.0,15.0,-999,-99.99,,,-99.99,,2013-02-04 20:22:00,
2013-02-04 15:32:00,18.0,-99.9,29.94,NW,306,9.0,15.0,-999,-99.99,,,-99.99,,2013-02-04 20:32:00,
2013-02-04 15:40:00,18.0,-99.9,29.94,West,275,10.0,12.0,-999,-99.99,,,-99.99,,2013-02-04 20:40:00,
2013-02-04 15:42:00,18.0,-99.9,29.94,NW,306,9.0,15.0,-999,-99.99,,,-99.99,,2013-02-04 20:42:00,
2013-02-04 15:52:00,18.0,-99.9,29.94,NW,306,9.0,15.0,-999,-99.99,,,-99.99,,2013-02-04 20:52:00,
2013-02-04 16:03:00,18.0,-99.9,30.64,West,275,10.0,12.0,-999,-99.99,,,-99.99,,2013-02-04 21:03:00,
2013-02-04 16:12:00,18.0,-99.9,29.94,West,275,10.0,12.0,-999,-99.99,,,-99.99,,2013-02-04 21:12:00,
2013-02-04 16:23:00,18.0,-99.9,29.94,West,275,10.0,12.0,-999,-99.99,,,-99.99,,2013-02-04 21:23:00,
2013-02-04 16:32:00,18.0,-99.9,29.94,West,275,10.0,12.0,-999,-99.99,,,-99.99,,2013-02-04 21:32:00,
2013-02-04 17:03:00,16.0,-99.9,30.63,WNW,283,7.0,10.0,-999,-99.99,,,-99.99,,2013-02-04 22:03:00,
2013-02-04 17:12:00,16.0,-99.9,29.93,WNW,283,7.0,10.0,-999,-99.99,,,-99.99,,2013-02-04 22:12:00,
2013-02-04 17:22:00,16.0,-99.9,29.93,NW,324,3.0,14.0,-999,-99.99,,,-99.99,,2013-02-04 22:22:00,
2013-02-04 17:33:00,16.0,-99.9,30.63,NW,324,3.0,14.0,-999,-99.99,,,-99.99,,2013-02-04 22:33:00,
2013-02-04 17:42:00,16.0,-99.9,29.93,NW,324,3.0,14.0,-999,-99.99,,,-99.99,,2013-02-04 22:42:00,
2013-02-04 17:52:00,16.0,-99.9,29.93,NW,324,3.0,14.0,-999,-99.99,,,-99.99,,2013-02-04 22:52:00,
2013-02-04 18:02:00,16.0,-99.9,30.62,West,272,6.0,11.0,-999,-99.99,,,-99.99,,2013-02-04 23:02:00,
2013-02-04 18:11:00,16.0,-99.9,29.92,West,272,6.0,11.0,-999,-99.99,,,-99.99,,2013-02-04 23:11:00,
2013-02-04 18:22:00,16.0,-99.9,30.63,NW,312,7.0,12.0,-999,-99.99,,,-99.99,,2013-02-04 23:22:00,
2013-02-04 18:32:00,16.0,-99.9,30.63,NW,312,7.0,12.0,-999,-99.99,,,-99.99,,2013-02-04 23:32:00,
2013-02-04 18:42:00,16.0,-99.9,29.93,NW,312,7.0,12.0,-999,-99.99,,,-99.99,,2013-02-04 23:42:00,
2013-02-04 18:53:00,16.0,-99.9,29.93,NW,312,7.0,12.0,-999,-99.99,,,-99.99,,2013-02-04 23:53:00,
2013-02-04 19:02:00,16.0,-99.9,30.63,West,266,6.0,7.0,-999,-99.99,,,-99.99,,2013-02-05 00:02:00,
2013-02-04 19:12:00,16.0,-99.9,29.93,West,266,6.0,7.0,-999,-99.99,,,-99.99,,2013-02-05 00:12:00,
2013-02-04 19:22:00,16.0,-99.9,29.93,West,266,6.0,7.0,-999,-99.99,,,-99.99,,2013-02-05 00:22:00,
2013-02-04 19:32:00,16.0,-99.9,30.63,West,263,10.0,13.0,-999,-99.99,,,-99.99,,2013-02-05 00:32:00,
2013-02-04 19:40:00,16.0,-99.9,29.94,WSW,258,8.0,14.0,-999,-99.99,,,-99.99,,2013-02-05 00:40:00,
2013-02-04 19:42:00,16.0,-99.9,29.93,West,263,10.0,13.0,-999,-99.99,,,-99.99,,2013-02-05 00:42:00,
2013-02-04 19:52:00,16.0,-99.9,30.63,West,263,10.0,13.0,-999,-99.99,,,-99.99,,2013-02-05 00:52:00,
2013-02-04 20:02:00,16.0,-99.9,30.64,WSW,258,8.0,14.0,-999,-99.99,,,-99.99,,2013-02-05 01:02:00,
2013-02-04 20:12:00,16.0,-99.9,29.94,WSW,258,8.0,14.0,-999,-99.99,,,-99.99,,2013-02-05 01:12:00,
2013-02-04 20:22:00,16.0,-99.9,29.94,WSW,258,8.0,14.0,-999,-99.99,,,-99.99,,2013-02-05 01:22:00,
2013-02-04 20:33:00,16.0,-99.9,29.94,WSW,258,8.0,14.0,-999,-99.99,,,-99.99,,2013-02-05 01:33:00,
2013-02-04 20:40:00,16.0,-99.9,29.94,West,265,6.0,10.0,-999,-99.99,,,-99.99,,2013-02-05 01:40:00,
2013-02-04 21:02:00,16.0,-99.9,30.64,West,265,6.0,10.0,-999,-99.99,,,-99.99,,2013-02-05 02:02:00,
2013-02-04 21:12:00,16.0,-99.9,29.94,West,265,6.0,10.0,-999,-99.99,,,-99.99,,2013-02-05 02:12:00,
2013-02-04 21:22:00,16.0,-99.9,29.94,West,265,6.0,10.0,-999,-99.99,,,-99.99,,2013-02-05 02:22:00,
2013-02-04 21:32:00,16.0,-99.9,29.94,West,265,6.0,10.0,-999,-99.99,,,-99.99,,2013-02-05 02:32:00,
2013-02-04 21:40:00,17.0,-99.9,29.94,NW,310,3.0,9.0,-999,-99.99,,,-99.99,,2013-02-05 02:40:00,
2013-02-04 22:02:00,17.0,-99.9,30.64,NW,310,3.0,9.0,-999,-99.99,,,-99.99,,2013-02-05 03:02:00,
2013-02-04 22:11:00,17.0,-99.9,29.94,NW,310,3.0,9.0,-999,-99.99,,,-99.99,,2013-02-05 03:11:00,
2013-02-04 22:22:00,17.0,-99.9,29.94,NW,310,3.0,9.0,-999,-99.99,,,-99.99,,2013-02-05 03:22:00,
2013-02-04 22:32:00,17.0,-99.9,29.94,NW,310,3.0,9.0,-999,-99.99,,,-99.99,,2013-02-05 03:32:00,
2013-02-04 23:02:00,17.0,-99.9,30.63,WNW,302,6.0,10.0,-999,-99.99,,,-99.99,,2013-02-05 04:02:00,
2013-02-04 23:11:00,17.0,-99.9,29.93,WNW,302,6.0,10.0,-999,-99.99,,,-99.99,,2013-02-05 04:11:00,
2013-02-04 23:22:00,17.0,-99.9,29.92,West,276,5.0,15.0,-999,-99.99,,,-99.99,,2013-02-05 04:22:00,
2013-02-04 23:32:00,17.0,-99.9,29.92,West,276,5.0,15.0,-999,-99.99,,,-99.99,,2013-02-05 04:32:00,
2013-02-04 23:42:00,17.0,-99.9,29.92,West,276,5.0,15.0,-999,-99.99,,,-99.99,,2013-02-05 04:42:00,
2013-02-04 23:52:00,17.0,-99.9,29.92,West,276,5.0,15.0,-999,-99.99,,,-99.99,,2013-02-05 04:52:00,